Hourly Data Report for April 18, 2003

SHERBROOKE A
QUEBEC

45°26'00.000" N
71°41'00.000" W
241.40 m
7028124
71610
YSC

Download Data

Hourly Data (April 2003)
Hourly Data Report for April 18, 2003
TIME
LST
Temp Definition
°C
Dew Point Definition
°C
Rel Hum Definition
%
Precip. Amount Definition
mm

Wind Dir Definition
10's deg

Wind Spd Definition
km/h
Visibility Definition
km
Stn Press Definition
kPa
Hmdx Definition


Wind Chill Definition


Weather Definition


00:00 -5.8 -12.9 57   5 7 15.0 100.20   -9  
01:00 -5.7 -12.8 57   7 11 15.0 100.18   -10  
02:00 -7.7 -11.4 75   11 4 15.0 100.21   -10  
03:00 -8.3 -10.9 81   8 4 15.0 100.22   -10  
04:00 -8.2 -10.3 85   8 4 15.0 100.23   -10  
05:00 -8.1 -10.3 84   9 4 15.0 100.23   -10  
06:00 -4.0 -10.2 62   12 11 15.0 100.22   -8  
07:00 -0.7 -12.6 40   7 7 15.0 100.19   -3  
08:00 2.7 -11.7 34   17 7 15.0 100.17      
09:00 4.5 -14.1 24   15 19 24.1 100.20     Cloudy
10:00 4.7 -14.4 24   17 13 24.1 100.21     Cloudy
11:00 5.2 -15.4 21   17 13 24.1 100.19     Cloudy
12:00 6.0 -12.2 26   14 19 24.1 100.15     Cloudy
13:00 6.8 -12.4 24   18 17 24.1 100.12     Cloudy
14:00 8.2 -9.9 27   17 15 24.1 100.05     Mostly Cloudy
15:00 7.9 -8.7 30   17 15 24.1 100.00     Mostly Cloudy
16:00 8.2 -7.6 32   16 20 24.1 99.96     Cloudy
17:00 8.6 -7.4 31   18 19 15.0 99.97      
18:00 7.9 -7.2 33   16 15 15.0 99.96      
19:00 5.8 -7.4 38   16 7 15.0 99.98      
20:00 3.9 -7.2 44   16 7 15.0 100.03      
21:00 2.7 -6.5 51   11 7 15.0 100.05      
22:00 0.4 -5.9 63   8 4 15.0 100.06      
23:00 0.2 -5.6 65   8 4 15.0 100.07      

Notes on Data Quality.

Legend

  • E = Estimated
  • M = Missing
  • NA = Not Available*
  • [empty] = Indicates an unobserved value
Date modified: